sat.trackr.live / text

‹ back to catalog

GCOM-C (SHIKISAI)

NORAD 43065 · 2017-082A

PAYLOAD ACTIVE UNKNOWN

§ Identity

Operator
Country
JPN
Launch date
2017-12-23
Launch site
TANSC
Launch vehicle
Mass (kg)
RCS (m²)

External: N2YO · Heavens-Above · Gunter

§ Orbital elements

Epoch: 2026-05-25T03:41:58.700832Z

Period
100.89 min
Inclination
98.6279°
Eccentricity
0.0001225
Mean motion
14.27283813 rev/d
Perigee alt
799.9 km
Apogee alt
801.7 km
Semi-major
7,179.0 km
B*
6.0435e-5
RAAN
219.0996°
Arg perigee
97.5074°
Mean anomaly
262.6246°
Rev number
43,865

§ Raw data

GCOM-C (SHIKISAI)1 43065U 17082A   26145.15415163  .00000104  00000+0  60435-4 0  99962 43065  98.6279 219.0996 0001225  97.5074 262.6246 14.27283813438652

JSON: /api/v1/satellites/43065 · /tle

For live sub-satellite position, see the globe view (requires WebGL).

§ Visibility from observer

Set your observer location to see the next 7 days of passes ≥ 10°. The values pass through the URL so the page stays shareable.

No JS? Fill the form by hand. The geolocation button needs JavaScript.

§ Radio — SatNOGS DB

ModeDescriptionDownlinkUplink
BPSK S-band telemetry 2.220 GHz

1 transmitter · refreshed weekly from db.satnogs.org